Location: Recife
(8.0585°S, 34.8848°W)
Time: 12:27:05
(UTC-03:00)

Vanguard 1 Rocket - Pass Details

Date: 19 April 2026
Orbit: 655 x 4212 km, 34.3° (Epoch: 12 May)

Event Time Altitude Azimuth Distance (km) Brightness Sun altitude
Rises 01:40:06 0° 330° (NNW) 7,462 11.9 -55.0°
Reaches altitude 10° 01:52:24 10° 1° (N) 5,253 11.3 -52.0°
Maximum altitude 01:55:16 11° 13° (NNE) 4,863 11.2 -51.3°
Drops below altitude 10° 01:57:50 10° 24° (NNE) 4,613 11.2 -50.7°
Sets 02:05:09 0° 60° (ENE) 4,669 11.6 -48.9°
